Carrollton, GA

5:06 AM EDT on April 24, 2017 (GMT -0400)
West Georgia Regional-Gray

Weather History for KCTJ - April, 2014

Change the Weather History Date:

Saturday, April 19, 2014

  Actual Average Record
Temperature  
Mean Temperature 57 °F -  
Max Temperature 64 °F 76 °F 87 °F (1976)
Min Temperature 50 °F 48 °F 28 °F (1983)
Degree Days  
Heating Degree Days 8    
Growing Degree Days 7 (Base 50)    
Moisture  
Dew Point 52 °F    
Average Humidity 84    
Maximum Humidity 100    
Minimum Humidity 67    
Precipitation  
Precipitation 0.00 in - - ()
Sea Level Pressure  
Sea Level Pressure 30.12 in    
Wind  
Wind Speed 8 mph (NNE)    
Max Wind Speed 15 mph    
Max Gust Speed 22 mph    
Visibility 10 miles    
Events Rain    
Averages and records for this station are not official NWS values.
T = Trace of Precipitation, MM = Missing Value Source: NWS Daily Summary

Daily Weather History Graph

Daily Weather History Graph

Search for Another Location

Airport or City:

Trip Planner

Search our weather history database for the weather conditions in past years. The results will help you decide how hot, cold, wet, or windy it might be!

Date:

Astronomy

Apr. 19, 2014 Rise Set
Actual Time 7:05 AM EDT 8:14 PM EDT
Civil Twilight 6:39 AM EDT 8:40 PM EDT
Nautical Twilight 6:08 AM EDT 9:11 PM EDT
Astronomical Twilight 5:37 AM EDT 9:43 PM EDT
Moon No Moon Rise 10:29 AM EDT (4/19)
Length of Visible Light 14h 01m
Length of Day
13h 09m
Waning Gibbous, 79% of the Moon is Illuminated
Apr 19
Waning Gibbous
Apr 22
Last Quarter
Apr 29
New
May 6
First Quarter
May 14
Full

Hourly Weather History & Observations

Time (EDT) Temp. Dew Point Humidity Pressure Visibility Wind Dir Wind Speed Gust Speed Precip Events Conditions
12:13 AM 50.0 °F 50.0 °F 100% 30.14 in 10.0 mi NNE 6.9 mph - N/A   Drizzle
12:33 AM 50.0 °F 50.0 °F 100% 30.13 in 10.0 mi NNE 6.9 mph - N/A   Overcast
12:53 AM 50.0 °F 50.0 °F 100% 30.13 in 10.0 mi NNE 6.9 mph - N/A   Overcast
1:13 AM 50.0 °F 50.0 °F 100% 30.12 in 10.0 mi NNE 6.9 mph - N/A   Overcast
1:33 AM 50.0 °F 50.0 °F 100% 30.12 in 10.0 mi NNE 8.1 mph - N/A   Overcast
1:53 AM 50.0 °F 50.0 °F 100% 30.11 in 10.0 mi NNE 9.2 mph - N/A   Overcast
2:13 AM 51.8 °F 50.0 °F 94% 30.10 in 10.0 mi North 8.1 mph - N/A   Overcast
2:33 AM 51.8 °F 50.0 °F 94% 30.09 in 10.0 mi NNE 6.9 mph - N/A Rain Light Rain
2:53 AM 51.8 °F 50.0 °F 94% 30.08 in 10.0 mi North 4.6 mph - N/A   Overcast
3:13 AM 51.8 °F 50.0 °F 94% 30.08 in 10.0 mi North 8.1 mph - N/A   Overcast
3:33 AM 51.8 °F 50.0 °F 94% 30.08 in 10.0 mi North 9.2 mph - N/A   Overcast
3:53 AM 51.8 °F 50.0 °F 94% 30.08 in 10.0 mi North 9.2 mph - N/A Rain Light Rain
4:13 AM 51.8 °F 50.0 °F 94% 30.09 in 10.0 mi North 6.9 mph - N/A Rain Rain
4:33 AM 51.8 °F 50.0 °F 94% 30.09 in 10.0 mi NNW 8.1 mph - N/A   Drizzle
4:53 AM 51.8 °F 50.0 °F 94% 30.09 in 10.0 mi North 8.1 mph - N/A   Light Drizzle
5:13 AM 51.8 °F 50.0 °F 94% 30.09 in 7.0 mi North 6.9 mph - N/A Rain Light Rain
5:53 AM 51.8 °F 50.0 °F 94% 30.09 in 10.0 mi North 4.6 mph - N/A   Overcast
6:13 AM 51.8 °F 50.0 °F 94% 30.09 in 10.0 mi NNE 3.5 mph - N/A   Overcast
6:33 AM 51.8 °F 50.0 °F 94% 30.09 in 10.0 mi North 4.6 mph - N/A   Light Drizzle
6:53 AM 51.8 °F 50.0 °F 94% 30.09 in 10.0 mi North 5.8 mph - N/A   Overcast
7:13 AM 51.8 °F 50.0 °F 94% 30.10 in 10.0 mi North 4.6 mph - N/A   Overcast
7:32 AM 51.8 °F 50.0 °F 94% 30.10 in 10.0 mi North 4.6 mph - N/A Rain Light Rain
7:53 AM 51.8 °F 50.0 °F 94% 30.10 in 10.0 mi North 3.5 mph - N/A   Overcast
8:13 AM 51.8 °F 50.0 °F 94% 30.10 in 10.0 mi North 4.6 mph - N/A   Overcast
8:33 AM 53.6 °F 50.0 °F 88% 30.10 in 10.0 mi NNE 8.1 mph - N/A   Overcast
8:53 AM 53.6 °F 50.0 °F 88% 30.10 in 10.0 mi North 9.2 mph - N/A   Overcast
9:13 AM 55.4 °F 50.0 °F 82% 30.10 in 10.0 mi NNE 11.5 mph 16.1 mph N/A   Overcast
9:33 AM 55.4 °F 51.8 °F 88% 30.09 in 10.0 mi NE 10.4 mph 17.3 mph N/A   Mostly Cloudy
9:53 AM 55.4 °F 51.8 °F 88% 30.09 in 10.0 mi NNE 9.2 mph - N/A   Mostly Cloudy
10:13 AM 57.2 °F 51.8 °F 82% 30.10 in 10.0 mi NNE 15.0 mph 20.7 mph N/A   Overcast
10:33 AM 59.0 °F 51.8 °F 77% 30.10 in 10.0 mi NNE 11.5 mph - N/A   Overcast
10:53 AM 60.8 °F 51.8 °F 72% 30.10 in 10.0 mi NNE 8.1 mph - N/A   Overcast
11:13 AM 60.8 °F 53.6 °F 77% 30.10 in 10.0 mi NE 8.1 mph 18.4 mph N/A   Overcast
11:33 AM 60.8 °F 51.8 °F 72% 30.10 in 10.0 mi NE 11.5 mph 19.6 mph N/A   Overcast
11:53 AM 60.8 °F 53.6 °F 77% 30.10 in 10.0 mi NNE 12.7 mph 20.7 mph N/A   Overcast
12:13 PM 62.6 °F 53.6 °F 72% 30.11 in 10.0 mi NNE 12.7 mph 17.3 mph N/A   Overcast
12:33 PM 60.8 °F 51.8 °F 72% 30.11 in 10.0 mi NNE 13.8 mph 18.4 mph N/A   Overcast
12:53 PM 62.6 °F 53.6 °F 72% 30.11 in 10.0 mi NE 9.2 mph 17.3 mph N/A   Overcast
1:13 PM 64.4 °F 53.6 °F 68% 30.11 in 10.0 mi NE 8.1 mph 18.4 mph N/A   Overcast
1:33 PM 64.4 °F 53.6 °F 68% 30.11 in 10.0 mi NE 10.4 mph 17.3 mph N/A   Overcast
1:53 PM 64.4 °F 53.6 °F 68% 30.11 in 10.0 mi NE 10.4 mph 21.9 mph N/A   Overcast
2:13 PM 64.4 °F 53.6 °F 68% 30.10 in 10.0 mi NE 9.2 mph 17.3 mph N/A   Overcast
2:33 PM 64.4 °F 53.6 °F 68% 30.10 in 10.0 mi NNE 11.5 mph 16.1 mph N/A   Overcast
2:53 PM 62.6 °F 55.4 °F 77% 30.11 in 10.0 mi North 11.5 mph - N/A Rain Light Rain
3:13 PM 62.6 °F 55.4 °F 77% 30.11 in 10.0 mi NNW 10.4 mph - N/A   Overcast
3:33 PM 60.8 °F 57.2 °F 88% 30.10 in 10.0 mi North 13.8 mph 18.4 mph N/A Rain Light Rain
3:53 PM 60.8 °F 57.2 °F 88% 30.11 in 10.0 mi North 10.4 mph 18.4 mph N/A   Light Drizzle
4:13 PM 62.6 °F 55.4 °F 77% 30.11 in 10.0 mi North 10.4 mph - N/A   Overcast
4:33 PM 60.8 °F 55.4 °F 82% 30.11 in 7.0 mi North 9.2 mph - N/A   Drizzle
4:53 PM 60.8 °F 59.0 °F 94% 30.11 in 5.0 mi North 8.1 mph - N/A   Drizzle
5:13 PM 60.8 °F 57.2 °F 88% 30.12 in 10.0 mi NE 4.6 mph - N/A   Overcast
5:33 PM 60.8 °F 59.0 °F 94% 30.12 in 10.0 mi NNE 9.2 mph - N/A   Overcast
6:13 PM 62.6 °F 55.4 °F 77% 30.12 in 10.0 mi NNE 12.7 mph 16.1 mph N/A   Overcast
6:33 PM 62.6 °F 53.6 °F 72% 30.12 in 10.0 mi NNE 8.1 mph 16.1 mph N/A   Overcast
6:53 PM 62.6 °F 53.6 °F 72% 30.13 in 10.0 mi NNE 9.2 mph - N/A   Overcast
7:13 PM 62.6 °F 53.6 °F 72% 30.14 in 10.0 mi NNE 6.9 mph - N/A   Overcast
7:33 PM 60.8 °F 51.8 °F 72% 30.14 in 10.0 mi NNE 6.9 mph - N/A   Overcast
7:53 PM 60.8 °F 51.8 °F 72% 30.14 in 10.0 mi North 5.8 mph - N/A   Overcast
8:13 PM 60.8 °F 51.8 °F 72% 30.15 in 10.0 mi North 5.8 mph - N/A   Overcast
8:33 PM 60.8 °F 53.6 °F 77% 30.16 in 10.0 mi NNE 3.5 mph - N/A   Overcast
8:53 PM 59.0 °F 53.6 °F 82% 30.16 in 10.0 mi Calm Calm - N/A   Overcast
9:13 PM 59.0 °F 53.6 °F 82% 30.17 in 10.0 mi East 4.6 mph - N/A   Overcast
9:33 PM 59.0 °F 53.6 °F 82% 30.18 in 10.0 mi East 5.8 mph - N/A   Overcast
9:53 PM 57.2 °F 53.6 °F 88% 30.19 in 10.0 mi East 9.2 mph - N/A   Overcast
10:13 PM 57.2 °F 53.6 °F 88% 30.19 in 10.0 mi ENE 3.5 mph - N/A   Overcast
10:33 PM 55.4 °F 51.8 °F 88% 30.19 in 10.0 mi NE 3.5 mph - N/A   Overcast
10:53 PM 55.4 °F 50.0 °F 82% 30.19 in 10.0 mi ENE 6.9 mph - N/A   Overcast
11:13 PM 55.4 °F 48.2 °F 77% 30.19 in 10.0 mi ENE 5.8 mph - N/A   Mostly Cloudy
11:33 PM 55.4 °F 46.4 °F 72% 30.19 in 10.0 mi East 6.9 mph - N/A   Scattered Clouds
11:53 PM 55.4 °F 44.6 °F 67% 30.19 in 10.0 mi East 5.8 mph - N/A   Mostly Cloudy